Theta_e
316 315 315 315 314 313 313 313 313 313 313 313 313 314 313 312 312 312 313 313 314 313 313 312 312 313 315 309 306 323 328 325 320 315 311 310 307 305 302 305 307 305 308 310 311 311 311
315 315 314 314 313 313 313 313 313 313 313 313 313 313 313 312 312 312 312 312 313 312 312 312 312 313 314 303 315 321 319 317 315 312 311 310 308 308 305 304 304 307 306 307 309 308 310
314 314 314 313 313 313 313 313 314 313 313 312 312 311 310 311 312 312 312 313 312 311 312 312 313 315 311 306 313 318 319 315 314 311 308 310 310 307 307 303 307 305 301 304 305 306 306
314 313 313 313 313 313 312 313 312 312 311 312 312 312 311 312 312 312 312 312 312 313 313 313 314 316 307 311 315 314 316 314 314 313 311 311 310 308 306 308 304 301 301 297 303 304 305
313 313 313 313 314 313 312 312 312 311 310 310 311 311 311 311 311 311 311 311 314 315 314 314 315 315 307 312 309 314 315 309 310 311 311 310 308 305 306 300 299 300 295 297 299 303 302
312 313 313 313 313 312 312 313 313 311 310 310 311 311 311 311 311 311 311 311 315 314 315 317 317 308 311 304 311 311 314 311 307 307 306 305 305 301 301 299 293 296 297 298 297 302 302
312 312 312 313 312 312 312 312 311 310 309 310 310 311 311 311 311 311 312 317 313 313 314 309 307 307 308 311 313 310 312 308 307 305 300 304 299 296 299 302 301 299 298 297 300 303 299
312 312 311 312 311 312 312 311 310 309 309 309 309 310 310 310 311 311 313 311 309 311 304 310 307 308 309 310 304 307 311 303 303 298 302 299 296 300 302 300 298 297 296 296 299 301 300
312 311 311 311 311 311 312 310 310 309 309 309 308 309 310 311 311 312 315 311 316 315 306 304 306 305 307 309 304 305 308 305 301 299 299 296 299 300 298 298 296 296 295 296 296 299 300
311 311 311 311 311 311 311 310 309 309 309 309 309 310 311 310 307 317 313 315 317 316 300 301 302 305 307 307 302 309 309 305 301 298 299 298 302 297 297 296 297 293 299 297 295 294 291
310 310 311 310 311 311 310 309 308 308 308 309 309 309 310 309 318 313 314 317 317 315 291 301 302 311 308 303 303 304 309 305 299 299 299 296 298 296 295 297 299 295 299 297 296 294 294
310 310 310 311 311 311 309 309 309 309 308 308 308 309 310 315 318 315 317 317 316 300 290 298 302 300 301 302 303 304 304 307 306 300 301 299 303 300 299 300 300 300 297 297 297 295 288
310 309 310 311 311 311 309 308 308 308 308 308 307 308 309 317 313 319 318 313 299 293 302 297 298 300 300 300 301 302 301 300 297 294 294 298 298 301 301 296 300 298 295 288 287 288 287
309 309 310 311 311 310 309 308 308 308 307 307 306 306 312 317 319 319 314 305 293 297 297 301 300 300 297 300 300 300 299 297 301 299 295 291 289 298 301 297 294 295 295 289 282 285 288
309 309 310 310 311 310 308 308 307 307 306 305 304 318 318 322 319 317 307 297 297 299 299 297 299 296 297 299 298 299 298 297 299 300 293 292 292 300 301 301 298 294 291 297 290 292 288
308 308 309 310 310 310 308 308 307 307 306 305 311 315 315 321 320 314 304 297 300 302 301 300 294 297 294 297 296 297 296 298 296 299 302 296 289 298 300 301 300 297 299 289 291 282 281
308 308 309 310 310 310 308 308 307 307 305 304 314 308 317 321 318 308 299 300 301 303 302 298 296 296 297 296 297 296 295 298 299 298 300 298 293 293 297 296 294 294 292 293 293 290 285
308 308 308 309 310 310 308 307 306 306 304 306 311 302 318 318 303 306 299 300 296 299 302 300 300 299 297 297 296 295 294 297 301 300 294 297 296 289 292 298 300 297 295 294 288 286 290
308 308 308 309 310 309 308 307 306 306 304 304 304 305 316 310 299 298 300 298 299 298 299 298 298 300 301 297 293 295 296 301 300 299 295 298 293 287 288 294 297 295 296 296 296 296 290
307 308 308 308 310 309 308 306 306 306 305 305 304 299 305 306 304 298 297 296 295 299 298 299 299 300 298 296 298 293 295 297 300 299 300 299 293 289 285 288 290 288 292 296 295 291 291
307 306 307 307 309 309 308 306 306 305 304 307 306 301 301 295 297 298 298 297 295 294 299 300 297 297 295 292 293 292 294 295 298 301 298 297 289 291 292 293 293 292 292 293 292 294 289
307 305 306 306 309 309 307 306 305 305 303 307 298 297 300 298 300 297 295 296 294 295 295 293 293 295 296 293 293 291 293 294 293 297 296 298 289 292 289 293 293 291 292 293 293 294 293
307 305 305 306 308 309 307 305 305 305 304 303 303 305 300 299 299 295 296 295 293 295 296 296 295 294 293 295 297 298 299 298 297 294 294 293 292 289 286 290 291 288 292 293 294 296 295
307 306 304 304 307 308 307 306 304 304 303 303 302 300 298 294 297 295 294 294 293 294 293 296 297 295 298 302 302 301 300 299 298 297 297 292 290 290 286 289 281 292 299 298 296 297 299
306 305 305 303 305 308 308 306 304 304 303 302 303 299 298 292 295 295 294 293 295 298 296 296 297 300 303 300 295 293 295 292 293 296 296 298 292 288 284 285 289 293 297 296 294 294 299
306 305 305 303 303 307 308 306 304 303 303 303 302 302 300 294 295 295 293 295 294 295 297 297 301 304 302 297 295 288 289 290 289 290 297 297 296 289 289 283 281 292 298 301 300 290 300
305 304 304 302 303 306 308 306 304 303 303 302 301 304 298 294 299 297 294 294 298 298 296 298 298 299 302 296 293 289 290 294 288 288 289 289 289 286 287 285 290 298 299 301 287 291 300
304 304 305 302 303 305 308 307 305 303 303 301 300 304 298 295 298 299 298 297 299 300 296 300 297 298 296 292 290 292 290 293 292 294 291 289 288 288 289 285 283 300 299 291 297 300 300
304 304 304 302 303 305 307 307 305 303 302 301 298 303 303 296 297 303 302 304 303 303 300 300 298 297 296 293 293 292 290 294 292 287 297 289 293 288 290 291 301 302 300 302 301 298 298
Wind_Speed
16 17 18 18 18 17 18 18 18 18 17 18 18 18 18 18 18 17 17 16 15 13 13 11 12 12 12 11 8 15 11 9 11 10 10 8 10 12 17 16 18 22 21 21 16 20 17
16 17 18 18 18 18 19 19 18 19 18 18 19 19 19 20 19 18 16 15 14 13 12 11 11 11 12 15 8 14 13 10 11 9 8 8 7 7 12 11 16 12 15 22 17 17 18
18 18 18 18 18 18 19 19 19 19 20 19 19 19 21 21 19 17 15 14 14 14 11 11 10 10 12 12 2 7 9 11 7 6 9 3 7 10 6 10 12 13 15 16 18 17 19
17 19 19 19 19 20 21 21 22 22 21 21 20 19 20 20 19 17 16 15 14 13 12 11 9 12 10 2 7 8 11 9 6 7 7 5 8 13 11 11 7 15 17 18 19 23 20
18 18 19 20 19 19 20 21 22 23 23 22 20 19 20 20 19 17 15 15 14 6 8 10 10 13 9 7 12 13 11 8 7 7 7 6 11 13 11 13 15 17 15 21 18 6 10
18 19 20 20 20 20 20 21 21 22 23 23 21 20 20 18 17 15 15 14 5 12 10 11 11 8 9 11 11 5 8 6 9 8 10 11 9 12 14 15 14 14 21 19 8 13 12
19 19 20 20 21 21 21 21 22 23 24 24 23 21 18 17 15 13 15 7 9 9 11 12 3 9 2 3 4 12 10 12 11 10 14 15 13 15 17 16 13 12 16 12 6 10 5
19 19 20 21 22 21 21 22 23 24 24 24 24 22 20 16 14 12 10 5 7 7 10 8 6 10 4 3 10 11 9 12 14 14 12 10 14 17 8 7 9 15 15 15 14 9 10
18 19 19 21 22 21 21 23 23 23 23 23 24 22 19 16 12 7 4 6 8 5 9 7 3 8 10 12 11 10 15 15 13 14 11 14 12 8 6 11 13 15 15 15 13 9 11
17 18 20 19 21 22 22 23 24 24 25 24 23 22 18 15 5 1 3 6 8 4 9 13 11 8 7 9 11 10 8 15 11 15 15 11 13 5 10 12 10 14 11 10 10 12 13
17 18 18 19 21 21 23 24 25 25 25 24 23 23 18 9 13 6 8 8 8 5 8 6 7 8 7 14 6 15 9 12 15 16 10 15 14 11 15 13 9 12 10 9 14 15 16
18 18 18 20 21 20 23 24 24 25 24 24 23 22 17 7 10 4 8 5 6 9 3 6 5 9 14 14 13 6 10 13 13 14 17 18 18 13 14 14 10 11 13 15 18 17 18
17 18 18 19 21 21 22 23 24 25 25 25 24 20 9 9 8 9 8 8 9 8 5 4 6 7 13 12 15 15 16 16 15 16 17 21 23 22 18 17 17 12 13 13 17 16 15
16 17 18 18 21 21 23 23 24 25 26 25 26 16 9 10 8 7 7 10 10 3 7 4 8 13 14 14 16 15 17 15 18 21 16 18 18 19 16 17 18 16 16 13 17 13 11
17 17 17 20 20 20 24 24 24 26 27 26 27 7 10 5 6 6 9 10 12 9 5 8 12 15 16 16 9 14 14 17 18 15 12 14 17 7 13 12 14 18 16 12 16 19 16
15 16 17 18 18 18 22 24 26 27 29 25 8 7 8 4 4 7 10 13 12 0 7 11 13 11 14 14 10 16 12 4 5 6 10 15 17 16 13 14 18 18 11 6 10 16 19
13 15 16 17 18 18 22 23 24 28 30 28 7 6 7 2 4 8 9 13 8 7 8 7 12 17 18 19 17 18 16 13 5 11 8 10 15 18 11 16 19 15 18 18 16 12 7
16 14 15 18 18 17 21 23 24 25 30 12 6 6 4 3 9 6 8 7 3 11 10 12 12 15 15 15 16 17 18 10 7 11 9 6 8 14 19 17 20 18 17 19 12 20 16
10 15 14 16 17 16 19 22 24 23 21 9 7 7 6 4 6 9 12 11 10 10 11 7 10 12 14 14 16 16 12 10 4 10 7 7 6 9 14 19 19 12 15 14 18 15 18
7 11 14 14 16 15 18 21 24 24 21 8 6 5 1 3 2 7 11 13 6 3 10 7 11 15 14 16 15 9 16 1 10 12 10 6 12 17 16 20 3 5 15 12 15 11 16
8 6 13 14 15 14 17 19 22 25 25 7 3 5 4 7 8 11 12 13 12 7 4 11 7 11 10 13 15 17 11 10 10 9 8 10 18 18 21 24 20 20 23 21 20 19 21
11 2 10 14 15 12 15 18 20 25 30 6 6 6 4 13 10 11 7 10 8 8 10 12 14 13 12 14 15 17 17 15 11 13 15 10 8 15 23 22 22 26 22 21 22 22 24
12 3 5 11 14 11 12 14 17 20 22 5 5 3 6 9 9 10 6 9 11 13 8 6 8 12 13 13 14 14 14 14 14 13 12 10 6 8 13 12 19 22 20 21 24 23 21
11 7 0 7 15 12 9 11 13 15 15 6 5 8 7 10 10 9 10 11 13 11 14 14 12 11 9 14 15 16 18 16 15 15 10 12 12 7 10 15 18 15 16 19 13 16 18
13 9 5 3 11 13 8 9 9 12 13 9 4 6 6 9 13 14 7 12 12 11 11 8 7 6 10 12 8 8 5 4 1 3 7 13 8 5 5 10 18 22 10 10 10 14 20
12 8 8 6 8 13 8 8 8 10 10 8 4 6 6 7 4 9 12 11 9 7 7 3 1 4 5 6 3 6 4 4 4 4 5 8 12 8 7 6 6 13 8 7 12 17 12
14 12 12 8 8 12 9 6 6 9 9 7 3 2 7 9 8 6 9 9 7 6 7 2 4 3 4 4 2 6 4 2 4 4 6 4 4 11 12 8 11 10 17 13 9 12 21
15 14 13 9 10 14 12 7 6 7 9 7 3 2 6 7 14 11 7 9 6 5 6 8 6 4 3 4 5 4 6 4 7 8 3 2 3 3 6 4 7 16 11 12 16 21 23
17 15 15 11 13 15 13 9 7 7 8 4 6 3 3 6 9 12 13 13 12 9 7 5 3 3 2 3 2 4 4 5 7 4 3 1 2 3 4 6 18 14 15 19 20 24 23
Wind_Direction
3 1 359 0 356 352 349 343 338 337 335 331 328 327 326 325 322 319 316 315 312 310 305 300 297 300 290 225 253 125 153 180 219 238 258 256 259 240 244 241 235 239 245 261 253 274 271
2 1 357 358 354 349 347 343 341 338 335 329 326 325 324 322 320 317 314 311 305 302 296 288 286 296 250 256 77 140 193 182 244 235 248 251 269 320 295 276 260 229 257 253 239 249 246
359 360 357 355 349 346 344 342 340 338 335 332 329 327 324 319 318 314 310 303 299 292 280 273 269 269 266 264 230 169 186 215 220 266 257 255 300 258 291 257 246 268 262 258 257 247 246
360 355 353 351 345 344 345 341 339 339 336 331 327 322 322 319 315 312 308 304 295 279 255 244 253 261 267 100 207 197 197 223 226 227 266 287 261 269 272 279 250 246 244 254 242 224 228
355 356 352 346 345 344 339 336 336 338 335 333 329 326 323 318 314 310 307 304 301 229 197 204 228 229 249 119 209 206 209 232 191 211 221 260 252 247 221 244 240 221 253 230 242 152 246
352 349 348 346 346 340 337 334 337 337 335 333 331 327 324 319 314 308 303 293 170 154 187 208 263 247 233 203 183 183 210 254 237 228 228 220 233 234 223 234 242 251 218 242 254 169 208
348 348 347 346 345 339 334 338 340 338 336 334 333 330 325 320 313 306 300 201 203 193 201 278 334 271 284 216 178 211 193 211 231 235 249 196 234 233 244 231 269 321 291 293 252 233 243
344 345 346 347 343 338 338 340 338 339 337 335 333 331 327 320 312 301 271 304 26 337 293 194 247 262 272 280 207 216 199 227 207 244 217 254 237 256 286 297 263 262 264 256 260 259 262
342 343 346 343 338 337 340 339 339 339 338 336 334 330 326 320 317 274 300 22 314 308 258 155 201 212 197 214 232 215 202 230 251 243 233 259 305 34 276 234 242 247 260 268 282 295 287
341 342 341 340 338 337 340 342 340 340 340 337 335 330 325 325 285 33 206 337 311 328 270 143 190 177 186 218 234 234 225 236 236 252 258 250 265 182 231 244 250 268 270 244 276 266 266
339 342 339 338 338 339 340 339 339 339 338 339 337 333 323 298 318 262 354 314 326 239 272 122 140 99 209 215 76 184 221 241 255 271 229 257 225 215 248 250 264 278 304 268 269 268 276
336 339 338 335 338 339 340 337 336 337 337 337 335 332 325 228 238 349 308 308 244 235 246 161 187 211 202 216 242 216 196 227 275 277 267 264 275 258 252 286 286 288 271 258 254 251 251
333 333 335 333 336 338 339 338 336 336 335 334 330 326 288 310 323 338 308 243 245 257 82 180 239 207 257 263 219 228 235 226 240 248 248 245 241 233 246 255 256 232 255 258 244 216 241
330 330 331 334 335 337 338 338 338 335 333 332 324 315 210 274 305 314 275 243 259 277 304 73 294 278 266 270 253 243 253 252 259 257 264 276 270 241 230 219 248 243 258 265 287 285 287
327 328 332 335 333 337 338 337 340 336 332 332 313 221 249 199 303 287 265 248 264 353 18 316 306 267 262 246 234 289 265 267 282 300 263 282 277 37 264 265 243 254 246 270 288 282 284
323 326 330 331 331 336 339 338 340 339 334 337 306 267 251 88 299 265 254 265 296 101 303 297 284 301 293 303 259 222 251 286 295 274 287 291 291 278 228 237 242 254 258 251 243 254 254
318 322 327 330 332 336 339 339 342 340 337 326 268 264 96 310 249 244 252 287 337 325 316 288 293 296 298 299 292 284 289 283 244 276 282 279 282 276 256 227 238 220 237 243 260 201 268
315 320 326 330 329 336 339 339 342 345 339 321 284 283 86 302 259 212 263 11 26 285 277 266 273 283 288 294 291 291 290 290 1 306 282 290 288 277 265 257 246 248 215 245 265 237 256
311 314 322 330 325 338 341 339 340 345 356 318 300 290 131 271 289 331 321 302 283 275 291 287 277 286 296 293 292 290 298 349 233 284 17 318 249 284 272 250 220 244 246 250 230 266 264
297 311 318 328 325 339 342 340 338 338 342 303 291 307 159 220 174 310 327 296 296 288 294 291 295 295 288 281 282 275 281 78 307 295 75 304 281 271 278 299 150 293 304 282 293 238 258
282 310 316 321 328 338 341 342 337 335 334 297 311 24 21 311 327 329 297 294 292 310 293 306 284 289 299 290 297 299 305 259 245 255 259 248 263 273 280 288 277 245 251 242 231 234 244
268 323 313 322 322 336 341 343 341 338 328 255 321 342 337 286 274 294 281 293 308 318 317 296 303 313 319 301 303 304 306 295 289 287 238 248 269 276 271 279 282 276 263 267 267 270 272
266 258 314 322 315 332 335 342 342 344 329 318 7 242 270 294 271 287 315 327 311 312 300 275 310 305 300 313 319 308 301 292 287 285 290 270 268 295 278 271 262 261 258 256 255 254 258
253 259 49 317 312 316 322 335 339 341 342 315 360 295 284 289 317 313 316 306 295 300 299 305 303 284 304 333 301 272 249 247 247 249 269 262 267 281 289 299 277 273 328 298 268 299 305
234 234 216 250 296 301 303 319 333 328 329 304 329 304 310 294 315 291 316 304 294 273 240 287 310 348 330 288 295 289 229 68 302 175 268 253 238 259 256 267 285 289 352 5 357 305 306
225 231 230 229 274 288 276 298 321 312 320 293 315 308 287 304 31 334 307 287 288 319 252 169 180 353 285 284 302 291 333 55 169 201 206 173 207 229 276 283 288 61 40 352 307 291 19
217 228 235 223 256 279 264 269 292 298 308 297 308 321 279 284 280 328 309 329 310 295 272 194 9 255 278 267 287 290 313 308 242 315 176 151 214 232 242 253 270 40 345 323 286 338 317
211 230 237 227 252 267 263 238 256 282 294 292 319 295 296 287 291 285 276 273 273 258 304 34 242 205 317 301 349 333 334 329 328 303 158 225 286 253 256 267 270 7 360 341 320 307 312
208 218 230 221 255 263 261 237 229 253 274 288 276 146 278 266 299 321 283 278 276 299 307 286 13 332 49 301 337 320 306 294 316 301 46 320 11 284 294 277 313 331 323 307 328 306 312